When you browse on this site, cookies collect data to enhance your experience and personalize the content and advertising you see.
Visit our Privacy Policy to learn more. By continuing to use the site, you agree to this use of cookies and data.
  • In Hungary
  • List of Countries
  • For 7 days
  • Water Temperature
  • Satellite Maps
  • Weather Map
  • News
  • Weather Widgets
  • user-avatar
    Login

    Hourly Weather Reus

    Today, 17 November, Saturday

    Time Temperature Precipitation Wind Pressure Humidity
    00:00 +14°C° 0 mm 3 mps 752 mmHg 91%
    01:00 +14°C° 0.1 mm 3 mps 752 mmHg 91%
    02:00 +14°C° 0.1 mm 3 mps 752 mmHg 91%
    03:00 +14°C° 0.1 mm 4 mps 751 mmHg 91%
    04:00 +14°C° 0.1 mm 3 mps 751 mmHg 90%
    05:00 +13°C° 0.1 mm 3 mps 751 mmHg 89%
    06:00 +13°C° 0 mm 3 mps 751 mmHg 88%
    07:00 +14°C° 0 mm 3 mps 751 mmHg 86%
    08:00 +14°C° 0 mm 3 mps 751 mmHg 83%
    09:00 +14°C° 0 mm 3 mps 750 mmHg 81%
    10:00 +16°C° 0 mm 3 mps 750 mmHg 77%
    11:00 +16°C° 0 mm 3 mps 750 mmHg 73%
    12:00 +17°C° 0 mm 4 mps 749 mmHg 69%
    13:00 +17°C° 0 mm 4 mps 749 mmHg 69%
    14:00 +17°C° 0 mm 4 mps 749 mmHg 69%
    15:00 +17°C° 0 mm 4 mps 748 mmHg 69%
    16:00 +15°C° 0 mm 4 mps 748 mmHg 73%
    17:00 +14°C° 0 mm 4 mps 748 mmHg 77%
    18:00 +13°C° 0 mm 4 mps 748 mmHg 82%
    19:00 +13°C° 0.1 mm 5 mps 748 mmHg 82%
    20:00 +13°C° 0.1 mm 5 mps 748 mmHg 83%
    21:00 +13°C° 0.1 mm 5 mps 748 mmHg 83%
    22:00 +12°C° 0.2 mm 5 mps 748 mmHg 84%
    23:00 +12°C° 0.2 mm 5 mps 748 mmHg 84%

    Tomorrow, 18 November, Sunday

    Time Temperature Precipitation Wind Pressure Humidity
    00:00 +12°C° 0.2 mm 5 mps 748 mmHg 85%
    01:00 +11°C° 0.3 mm 6 mps 747 mmHg 86%
    02:00 +11°C° 0.3 mm 6 mps 747 mmHg 86%
    03:00 +11°C° 0.3 mm 6 mps 747 mmHg 87%
    04:00 +11°C° 0.7 mm 6 mps 747 mmHg 87%
    05:00 +11°C° 0.7 mm 6 mps 746 mmHg 86%
    06:00 +11°C° 0.7 mm 6 mps 746 mmHg 86%
    07:00 +11°C° 0.5 mm 7 mps 746 mmHg 86%
    08:00 +11°C° 0.5 mm 7 mps 747 mmHg 85%
    09:00 +11°C° 0.5 mm 7 mps 747 mmHg 84%
    10:00 +11°C° 0.5 mm 7 mps 747 mmHg 83%
    11:00 +12°C° 0.5 mm 7 mps 746 mmHg 81%
    12:00 +12°C° 0.5 mm 7 mps 746 mmHg 80%
    13:00 +12°C° 0.5 mm 7 mps 746 mmHg 81%
    14:00 +12°C° 0.5 mm 7 mps 746 mmHg 82%
    15:00 +12°C° 0.5 mm 7 mps 745 mmHg 83%
    16:00 +12°C° 0.5 mm 7 mps 745 mmHg 84%
    17:00 +12°C° 0.5 mm 7 mps 745 mmHg 85%
    18:00 +11°C° 0.5 mm 7 mps 745 mmHg 86%
    19:00 +11°C° 0.3 mm 7 mps 745 mmHg 86%
    20:00 +11°C° 0.3 mm 7 mps 745 mmHg 86%
    21:00 +11°C° 0.3 mm 8 mps 745 mmHg 86%
    22:00 +11°C° 0.2 mm 7 mps 745 mmHg 86%
    23:00 +11°C° 0.2 mm 7 mps 744 mmHg 86%

    Day after tomorrow, 19 November, Monday

    Time Temperature Precipitation Wind Pressure Humidity
    00:00 +11°C° 0.2 mm 7 mps 744 mmHg 87%
    01:00 +10°C° 0.1 mm 6 mps 743 mmHg 87%
    02:00 +10°C° 0.1 mm 6 mps 743 mmHg 87%
    03:00 +10°C° 0.1 mm 6 mps 742 mmHg 88%
    04:00 +10°C° 0.1 mm 6 mps 742 mmHg 88%
    05:00 +9°C° 0.1 mm 6 mps 741 mmHg 88%
    06:00 +9°C° 0.1 mm 6 mps 741 mmHg 88%
    07:00 +10°C° 0.1 mm 6 mps 741 mmHg 84%
    08:00 +10°C° 0.1 mm 6 mps 740 mmHg 81%
    09:00 +11°C° 0.1 mm 6 mps 740 mmHg 78%
    10:00 +13°C° 0.2 mm 6 mps 740 mmHg 74%
    11:00 +14°C° 0.2 mm 6 mps 739 mmHg 71%
    12:00 +14°C° 0.2 mm 6 mps 739 mmHg 68%
    13:00 +14°C° 0.1 mm 5 mps 738 mmHg 67%
    14:00 +14°C° 0.1 mm 5 mps 738 mmHg 67%
    15:00 +14°C° 0.1 mm 4 mps 737 mmHg 67%
    16:00 +13°C° 0.2 mm 4 mps 737 mmHg 71%
    17:00 +13°C° 0.2 mm 4 mps 737 mmHg 74%
    18:00 +12°C° 0.2 mm 3 mps 737 mmHg 78%
    19:00 +12°C° 0.3 mm 3 mps 737 mmHg 79%
    20:00 +11°C° 0.3 mm 3 mps 737 mmHg 81%
    21:00 +11°C° 0.3 mm 3 mps 738 mmHg 82%
    22:00 +10°C° 0.2 mm 3 mps 737 mmHg 82%
    23:00 +10°C° 0.2 mm 3 mps 737 mmHg 81%

    20 November, Tuesday

    Time Temperature Precipitation Wind Pressure Humidity
    00:00 +9°C° 0.2 mm 3 mps 737 mmHg 80%
    01:00 +8°C° 0 mm 4 mps 737 mmHg 80%
    02:00 +7°C° 0 mm 6 mps 737 mmHg 79%
    03:00 +6°C° 0 mm 7 mps 736 mmHg 78%
    04:00 +5°C° 0 mm 7 mps 736 mmHg 78%
    05:00 +5°C° 0 mm 7 mps 736 mmHg 78%
    06:00 +4°C° 0 mm 7 mps 736 mmHg 77%
    07:00 +5°C° 0 mm 8 mps 737 mmHg 73%
    08:00 +5°C° 0 mm 8 mps 737 mmHg 69%
    09:00 +6°C° 0 mm 8 mps 738 mmHg 65%
    10:00 +7°C° 0 mm 8 mps 738 mmHg 59%
    11:00 +9°C° 0 mm 8 mps 738 mmHg 54%
    12:00 +10°C° 0 mm 8 mps 738 mmHg 48%
    13:00 +9°C° 0.2 mm 7 mps 738 mmHg 51%
    14:00 +9°C° 0.2 mm 6 mps 738 mmHg 54%
    15:00 +8°C° 0.2 mm 6 mps 738 mmHg 57%
    16:00 +8°C° 0.2 mm 5 mps 738 mmHg 60%
    17:00 +7°C° 0.2 mm 4 mps 739 mmHg 63%
    18:00 +8°C° 0.2 mm 2 mps 739 mmHg 67%
    19:00 +8°C° 0.3 mm 2 mps 739 mmHg 69%
    20:00 +7°C° 0.3 mm 2 mps 740 mmHg 71%
    21:00 +7°C° 0.3 mm 2 mps 740 mmHg 74%
    22:00 +7°C° 0.1 mm 2 mps 740 mmHg 74%
    23:00 +7°C° 0.1 mm 2 mps 740 mmHg 75%

    21 November, Wednesday

    Time Temperature Precipitation Wind Pressure Humidity
    00:00 +7°C° 0.1 mm 2 mps 741 mmHg 76%
    01:00 +7°C° 0.3 mm 2 mps 741 mmHg 78%
    02:00 +7°C° 0.3 mm 2 mps 741 mmHg 79%
    03:00 +7°C° 0.3 mm 2 mps 741 mmHg 81%
    04:00 +6°C° 0 mm 2 mps 741 mmHg 81%
    05:00 +6°C° 0 mm 2 mps 742 mmHg 82%
    06:00 +6°C° 0 mm 2 mps 742 mmHg 82%
    07:00 +7°C° 0 mm 2 mps 742 mmHg 79%
    08:00 +8°C° 0 mm 1 mps 743 mmHg 77%
    09:00 +9°C° 0 mm 1 mps 743 mmHg 74%
    10:00 +10°C° 0.1 mm 1 mps 743 mmHg 74%
    11:00 +10°C° 0.1 mm 1 mps 743 mmHg 74%
    12:00 +11°C° 0.1 mm 1 mps 743 mmHg 73%
    13:00 +9°C° 0.4 mm 2 mps 743 mmHg 76%
    14:00 +9°C° 0.4 mm 2 mps 744 mmHg 78%
    15:00 +9°C° 0.4 mm 3 mps 744 mmHg 80%
    16:00 +8°C° 0.3 mm 3 mps 744 mmHg 82%
    17:00 +8°C° 0.3 mm 3 mps 745 mmHg 83%
    18:00 +7°C° 0.3 mm 3 mps 745 mmHg 84%
    19:00 +7°C° 0 mm 3 mps 746 mmHg 85%
    20:00 +5°C° 0 mm 3 mps 747 mmHg 86%
    21:00 +6°C° 0 mm 2 mps 747 mmHg 86%
    22:00 +6°C° 0 mm 2 mps 747 mmHg 86%
    23:00 +6°C° 0 mm 2 mps 748 mmHg 85%

    22 November, Thursday

    Time Temperature Precipitation Wind Pressure Humidity
    00:00 +7°C° 0 mm 1 mps 748 mmHg 84%
    01:00 +7°C° 0 mm 1 mps 748 mmHg 83%
    02:00 +7°C° 0 mm 1 mps 748 mmHg 82%
    03:00 +7°C° 0 mm 1 mps 748 mmHg 82%
    04:00 +7°C° 0 mm 1 mps 748 mmHg 81%
    05:00 +6°C° 0 mm 1 mps 749 mmHg 80%
    06:00 +6°C° 0 mm 1 mps 749 mmHg 79%
    07:00 +8°C° 0 mm 1 mps 749 mmHg 74%
    08:00 +9°C° 0 mm 1 mps 750 mmHg 69%
    09:00 +10°C° 0 mm 1 mps 750 mmHg 65%
    10:00 +12°C° 0 mm 1 mps 750 mmHg 61%
    11:00 +13°C° 0 mm 1 mps 750 mmHg 57%
    12:00 +14°C° 0 mm 1 mps 750 mmHg 53%
    13:00 +14°C° 0 mm 1 mps 750 mmHg 54%
    14:00 +14°C° 0 mm 1 mps 749 mmHg 54%
    15:00 +14°C° 0 mm 2 mps 749 mmHg 54%
    16:00 +13°C° 0 mm 1 mps 750 mmHg 59%
    17:00 +12°C° 0 mm 1 mps 750 mmHg 65%
    18:00 +10°C° 0 mm 1 mps 750 mmHg 70%
    19:00 +10°C° 0 mm 1 mps 751 mmHg 71%
    20:00 +10°C° 0 mm 1 mps 751 mmHg 73%
    21:00 +10°C° 0 mm 1 mps 751 mmHg 75%
    22:00 +9°C° 0 mm 1 mps 751 mmHg 75%
    23:00 +9°C° 0 mm 1 mps 751 mmHg 76%
    Show more